This demonstration page uses our WeatherBlox Daily Observations layout. Learn more.

39.92423, -83.80882

Hourly Observations for August 6, 2018

Temp ( °F °C ) Dew Point ( °F °C ) Humidity (%) Winds ( mph kmh ) Pressure ( in mb ) Visibility ( mi km ) Precip ( " mm )
1:56 am 01:56 Clear 73 22.8 70 21.1 90 90 S 3 6 30.15 1021 10 16.0934 0 0
2:56 am 02:56 Clear 71 21.7 70 21.1 96 96 SSW 3 6 30.14 1021 10 16.0934 0 0
3:56 am 03:56 Clear 71 21.7 69 20.6 94 94 SW 7 11 30.13 1020 10 16.0934 0 0
4:56 am 04:56 Clear 69 20.6 69 20.6 100 100 SSW 5 7 30.12 1020 10 16.0934 0 0
5:56 am 05:56 Clear 68 20 68 20 100 100 WSW 3 6 30.14 1021 10 16.0934 0 0
6:56 am 06:56 Sunny 68 20 68 20 100 100 SSW 3 6 30.14 1021 9 14.48406 0 0
7:56 am 07:56 Sunny 72 22.2 70 21.1 94 94 SSW 5 7 30.14 1021 10 16.0934 0 0
8:56 am 08:56 Sunny 75 23.9 72 22.2 90 90 WSW 7 11 30.14 1021 10 16.0934 0 0
9:56 am 09:56 Sunny 78 25.6 74 23.3 87 87 SW 7 11 30.14 1021 10 16.0934 0 0
10:56 am 10:56 Sunny 81 27.2 73 22.8 77 77 WSW 7 11 30.14 1021 10 16.0934 0 0
11:56 am 11:56 Sunny 83 28.3 75 23.9 77 77 SW 9 15 30.14 1021 10 16.0934 0 0
12:56 pm 12:56 Sunny 84 28.9 74 23.3 72 72 S 7 11 30.13 1020 10 16.0934 0 0
1:56 pm 13:56 Sunny 85 29.4 74 23.3 70 70 SSW 9 15 30.11 1020 10 16.0934 0 0
2:56 pm 14:56 Sunny 85 29.4 74 23.3 70 70 SSW 8 13 30.08 1019 10 16.0934 0 0
3:56 pm 15:56 Partly Cloudy with Light Rain 83 28.3 75 23.9 77 77 SSW 3 6 30.06 1018 10 16.0934 0 0
4:56 pm 16:56 Sunny 85 29.4 75 23.9 72 72 S 9 15 30.04 1017 10 16.0934 0 0
5:56 pm 17:56 Sunny 83 28.3 73 22.8 72 72 S 9 15 30.04 1017 10 16.0934 0 0
6:56 pm 18:56 Sunny 83 28.3 74 23.3 74 74 SSW 6 9 30.02 1017 10 16.0934 0 0
7:56 pm 19:56 Sunny 80 26.7 74 23.3 82 82 S 6 9 30.02 1017 10 16.0934 0 0
8:56 pm 20:56 Clear 78 25.6 73 22.8 85 85 S 3 6 30.03 1017 10 16.0934 0 0
9:56 pm 21:56 Clear 76 24.4 73 22.8 91 91 SSW 6 9 30.04 1017 10 16.0934 0 0
10:56 pm 22:56 Clear 75 23.9 72 22.2 90 90 SSW 6 9 30.04 1017 10 16.0934 0 0
11:56 pm 23:56 Clear 74 23.3 72 22.2 94 94 S 6 9 30.03 1017 10 16.0934 0 0

Powered by AerisWeather